{"data":{"norad_id":48312,"epoch":"2026-05-25T03:11:14.719200Z","epoch_age_seconds":66656,"freshness":"FRESH","line1":"1 48312U 21036AN  26145.13280925  .00000565  00000+0  29967-4 0  9990","line2":"2 48312  53.1586  92.8730 0001145  87.1263 272.9869 15.31702858279938","mean_motion":15.31702858,"eccentricity":0.0001145,"inclination_deg":53.1586,"raan_deg":92.873,"arg_perigee_deg":87.1263,"mean_anomaly_deg":272.9869,"bstar":2.9967e-5,"rev_number":27993,"period_min":94.013012542149,"perigee_km":469.94728024915,"apogee_km":471.51567113008,"semimajor_km":6848.8684756896,"source":"CELESTRAK","updated_at":"2026-05-25T13:38:16.679815Z"}}